This is the latest recevied weather packets stored in our database for station/object DO1BDB-12. If no packets are shown the sender has not sent any weather packets the latest 10 day(s).
| Time | Temp. | Humidity | Pressure | Rain* | Wind** | Luminosity | Snow |
|---|---|---|---|---|---|---|---|
| 1777461694 | 14.44° C | 33% | 103.1 hPa | - | - | - | - |
| 1777461628 | 13.89° C | 32% | 103.1 hPa | - | - | - | - |
| 1777461562 | 14.44° C | 32% | 103.1 hPa | - | - | - | - |
| 1777461496 | 14.44° C | 32% | 103.1 hPa | - | - | - | - |
| 1777461430 | 14.44° C | 33% | 103.1 hPa | - | - | - | - |
| 1777461365 | 16.11° C | 31% | 103.1 hPa | - | - | - | - |
| 1777461299 | 17.22° C | 35% | 103.1 hPa | - | - | - | - |
| 1777461233 | 16.67° C | 30% | 103.1 hPa | - | - | - | - |
| 1777461167 | 14.44° C | 32% | 103.1 hPa | - | - | - | - |
| 1777461102 | 15° C | 32% | 103.1 hPa | - | - | - | - |
| 1777461035 | 14.44° C | 34% | 103.1 hPa | - | - | - | - |
| 1777460970 | 13.89° C | 34% | 103.1 hPa | - | - | - | - |
| 1777460904 | 13.89° C | 34% | 103.1 hPa | - | - | - | - |
| 1777460838 | 14.44° C | 33% | 103.1 hPa | - | - | - | - |
| 1777460772 | 14.44° C | 32% | 103.1 hPa | - | - | - | - |
| 1777460706 | 14.44° C | 33% | 103.1 hPa | - | - | - | - |
| 1777460640 | 13.33° C | 32% | 103.1 hPa | - | - | - | - |
| 1777460574 | 14.44° C | 32% | 103.1 hPa | - | - | - | - |
| 1777460509 | 15° C | 32% | 103.1 hPa | - | - | - | - |
| 1777460443 | 13.89° C | 33% | 103.1 hPa | - | - | - | - |
| 1777460377 | 14.44° C | 32% | 103.1 hPa | - | - | - | - |
| 1777460311 | 15° C | 32% | 103.1 hPa | - | - | - | - |
| 1777460245 | 14.44° C | 32% | 103.1 hPa | - | - | - | - |
| 1777460179 | 15° C | 32% | 103.1 hPa | - | - | - | - |
| 1777460114 | 13.89° C | 32% | 103.1 hPa | - | - | - | - |
* Rain since midnight (hover to see other rain measurements)
** Current wind speed in m/s (hover to see current wind gust speed)